Total_Precipitation_Accumulation
1.23 1.20 1.06 1.02 0.93 0.80 0.75 0.71 0.66 0.62 0.54 0.48 0.41 0.37 0.35 0.32 0.29 0.28 0.26 0.23 0.29 0.49 0.73 0.84 0.87 0.92 0.96 0.99 1.01 0.97 0.89 0.81 0.73 0.66 0.60 0.58 0.61 0.62 0.64 0.65 0.66 0.66 0.67
1.36 1.24 1.12 1.07 1.01 0.86 0.76 0.76 0.71 0.67 0.60 0.54 0.48 0.42 0.38 0.34 0.32 0.29 0.26 0.25 0.28 0.36 0.54 0.72 0.85 0.99 1.11 1.18 1.18 1.13 1.06 0.99 0.92 0.82 0.73 0.66 0.64 0.64 0.65 0.67 0.66 0.66 0.69
1.51 1.44 1.24 1.10 1.06 1.04 0.99 0.93 0.89 0.76 0.64 0.57 0.54 0.49 0.45 0.41 0.36 0.32 0.29 0.27 0.28 0.30 0.38 0.56 0.77 0.95 1.09 1.21 1.27 1.29 1.24 1.14 1.08 1.01 0.91 0.81 0.73 0.69 0.68 0.69 0.70 0.71 0.72
1.72 1.62 1.50 1.31 1.22 1.23 1.20 1.09 0.96 0.89 0.74 0.62 0.56 0.52 0.47 0.43 0.38 0.35 0.31 0.26 0.24 0.25 0.31 0.41 0.55 0.74 0.97 1.13 1.27 1.34 1.33 1.22 1.13 1.07 0.99 0.92 0.87 0.84 0.83 0.83 0.81 0.81 0.82
1.91 1.73 1.55 1.48 1.48 1.41 1.30 1.21 1.05 1.02 0.95 0.78 0.66 0.59 0.53 0.47 0.40 0.37 0.33 0.29 0.25 0.24 0.26 0.31 0.37 0.45 0.65 0.90 1.15 1.37 1.47 1.42 1.30 1.19 1.12 1.08 1.04 1.03 1.03 1.02 0.99 0.98 1.01
2.22 2.06 1.76 1.62 1.62 1.60 1.51 1.41 1.31 1.19 1.10 1.04 0.90 0.70 0.58 0.52 0.46 0.40 0.35 0.32 0.29 0.26 0.26 0.27 0.30 0.31 0.39 0.59 0.88 1.19 1.47 1.59 1.50 1.39 1.29 1.24 1.23 1.21 1.22 1.25 1.25 1.26 1.26
2.31 2.38 2.16 1.94 1.86 1.80 1.75 1.70 1.69 1.57 1.34 1.27 1.20 0.94 0.69 0.56 0.51 0.44 0.40 0.37 0.34 0.33 0.33 0.32 0.33 0.33 0.37 0.48 0.64 0.81 1.07 1.37 1.55 1.56 1.48 1.40 1.38 1.40 1.46 1.50 1.50 1.48 1.48
2.34 2.39 2.46 2.30 2.04 1.96 1.96 1.93 1.84 1.71 1.58 1.47 1.38 1.29 1.08 0.85 0.63 0.52 0.48 0.44 0.40 0.38 0.38 0.39 0.40 0.40 0.41 0.47 0.52 0.58 0.70 0.95 1.28 1.53 1.58 1.54 1.49 1.50 1.61 1.75 1.83 1.84 1.79
2.47 2.38 2.33 2.37 2.29 2.14 2.06 2.08 2.10 2.05 1.90 1.75 1.59 1.61 1.39 1.08 0.83 0.65 0.57 0.55 0.54 0.51 0.47 0.46 0.48 0.50 0.50 0.50 0.48 0.49 0.53 0.69 0.95 1.33 1.64 1.77 1.76 1.78 1.88 1.97 2.05 2.16 2.16
2.54 2.45 2.43 2.40 2.36 2.27 2.15 2.16 2.24 2.25 2.24 2.11 1.92 1.72 1.51 1.25 1.14 0.91 0.71 0.67 0.72 0.73 0.69 0.62 0.57 0.57 0.58 0.58 0.58 0.58 0.60 0.66 0.88 1.23 1.66 2.00 2.15 2.27 2.44 2.50 2.58 2.66 2.62
2.66 2.53 2.45 2.46 2.45 2.36 2.28 2.26 2.29 2.30 2.30 2.25 2.14 1.94 1.77 1.49 1.26 1.16 0.96 0.82 0.83 0.81 0.83 0.79 0.72 0.66 0.64 0.63 0.63 0.69 0.80 0.83 1.00 1.29 1.70 2.16 2.50 2.72 2.89 3.00 3.09 3.14 3.14
2.53 2.44 2.44 2.39 2.38 2.33 2.22 2.17 2.21 2.24 2.24 2.16 2.06 1.92 1.82 1.66 1.45 1.37 1.23 1.01 0.99 0.93 0.93 0.94 0.89 0.82 0.76 0.70 0.70 0.85 0.88 0.93 1.07 1.32 1.69 2.13 2.42 2.67 2.88 3.03 3.15 3.22 3.31
2.26 2.20 2.23 2.26 2.28 2.25 2.22 2.15 2.11 2.05 2.10 2.13 2.02 1.86 1.72 1.53 1.41 1.48 1.47 1.28 1.11 0.98 0.96 0.95 0.93 0.94 0.93 0.93 0.94 1.06 1.00 1.04 1.11 1.31 1.65 2.00 2.11 2.14 2.24 2.38 2.59 2.76 2.90
2.07 2.07 2.10 2.14 2.20 2.25 2.23 2.21 2.13 2.02 1.99 1.97 1.96 1.87 1.78 1.61 1.45 1.41 1.45 1.52 1.45 1.21 1.05 0.96 0.93 1.01 1.09 1.12 1.19 1.29 1.12 1.23 1.22 1.27 1.46 1.66 1.73 1.68 1.69 1.84 2.03 2.20 2.37
1.97 1.99 2.09 2.10 2.06 2.05 2.04 2.08 2.08 1.95 1.85 1.81 1.76 1.78 1.74 1.64 1.56 1.47 1.45 1.57 1.81 1.75 1.40 1.13 1.10 1.15 1.20 1.23 1.33 1.22 1.04 1.21 1.27 1.26 1.31 1.34 1.36 1.35 1.37 1.46 1.59 1.71 1.82
1.84 1.81 1.86 1.94 1.95 1.94 1.94 1.95 1.88 1.79 1.72 1.60 1.53 1.56 1.60 1.58 1.60 1.60 1.60 1.63 1.76 1.92 1.76 1.30 1.16 1.16 1.21 1.22 1.32 1.17 1.06 1.23 1.17 1.15 1.17 1.18 1.15 1.13 1.15 1.20 1.32 1.43 1.53
1.71 1.66 1.69 1.69 1.67 1.66 1.70 1.77 1.73 1.68 1.65 1.58 1.49 1.42 1.37 1.41 1.52 1.57 1.65 1.69 1.73 1.84 1.84 1.44 1.19 1.12 1.15 1.12 1.09 1.00 0.97 0.97 0.94 1.06 1.02 1.01 1.03 1.03 1.02 1.05 1.12 1.22 1.30
1.61 1.58 1.60 1.63 1.58 1.53 1.51 1.54 1.55 1.55 1.58 1.57 1.55 1.52 1.46 1.42 1.51 1.58 1.66 1.70 1.67 1.64 1.65 1.48 1.22 1.09 1.02 0.95 0.92 0.88 0.84 0.82 0.80 0.97 0.95 0.92 0.94 0.93 0.90 0.92 0.98 1.05 1.12
1.54 1.57 1.52 1.53 1.53 1.52 1.51 1.49 1.48 1.49 1.49 1.50 1.56 1.60 1.56 1.58 1.59 1.56 1.53 1.52 1.48 1.42 1.37 1.32 1.16 1.04 0.99 0.95 0.94 0.87 0.78 0.74 0.72 0.81 0.85 0.84 0.90 0.94 0.89 0.90 0.94 0.97 0.97
1.40 1.47 1.45 1.42 1.45 1.49 1.52 1.51 1.53 1.58 1.60 1.58 1.59 1.61 1.60 1.60 1.56 1.53 1.49 1.41 1.36 1.36 1.32 1.30 1.21 1.10 1.01 0.95 0.97 0.93 0.84 0.74 0.69 0.66 0.75 0.77 0.84 0.93 0.93 0.86 0.80 0.79 0.77
1.32 1.37 1.40 1.38 1.39 1.47 1.56 1.58 1.55 1.59 1.68 1.70 1.66 1.60 1.54 1.60 1.58 1.51 1.44 1.40 1.40 1.46 1.46 1.44 1.34 1.18 1.01 0.92 0.87 0.81 0.82 0.79 0.75 0.68 0.70 0.70 0.72 0.71 0.73 0.80 0.82 0.81 0.83
1.33 1.38 1.44 1.46 1.46 1.50 1.79 1.84 1.73 1.66 1.67 1.65 1.60 1.51 1.45 1.49 1.45 1.48 1.49 1.45 1.49 1.56 1.63 1.61 1.44 1.19 0.92 0.79 0.78 0.87 0.96 1.04 0.95 0.68 0.70 0.68 0.66 0.69 0.66 0.68 0.83 0.88 0.90
1.40 1.49 1.57 1.61 1.64 1.70 1.83 1.72 1.70 1.54 1.50 1.48 1.39 1.31 1.25 1.20 1.23 1.10 1.22 1.34 1.35 1.43 1.47 1.40 1.26 1.01 0.87 0.82 0.97 1.10 1.06 1.03 0.86 0.68 0.80 0.86 0.75 0.72 0.67 0.73 0.87 0.83 0.84
1.50 1.61 1.70 1.72 1.68 1.69 1.67 1.48 1.45 1.33 1.24 1.18 1.14 1.11 1.07 1.02 1.02 1.06 1.07 1.14 1.08 1.03 1.00 0.95 0.93 0.88 0.89 0.94 1.09 1.25 1.22 1.15 0.93 0.79 0.83 0.95 0.81 0.75 0.68 0.72 0.85 0.83 0.86
1.47 1.53 1.56 1.52 1.41 1.36 1.36 1.21 1.12 1.03 1.06 1.01 0.95 0.94 0.96 0.91 1.06 1.23 1.19 1.15 1.00 0.90 0.93 0.96 1.01 1.03 1.10 1.11 1.13 1.25 1.36 1.45 1.28 0.94 0.81 0.86 0.77 0.73 0.72 0.70 0.76 0.86 0.83
1.19 1.12 1.08 1.05 0.98 0.91 0.97 1.00 1.00 0.87 0.88 0.88 0.86 0.87 0.99 0.99 1.14 1.27 1.17 1.15 1.04 0.88 0.89 0.92 0.90 0.88 0.87 0.94 1.09 1.10 1.32 1.67 1.49 1.17 0.81 0.91 0.92 0.99 1.17 0.82 0.71 0.73 0.75